NETSAT-1

Last updated on Sun Jun 21 2026 00:03:50 GMT+0000 (Coordinated Universal Time)

1 46506U 20068W 26170.93912466 .00010455 00000+0 31335-3 0 9995 2 46506 97.8748 171.9127 0004707 24.0550 336.0910 15.34696284315726
UTC large
Height (km)
Speed (km/s)
/
Latitude / Longitude
Inclination (degrees)
Orbital Period (minutes)
Azimuth
Elevation
Range (km)
Doppler Factor

Next 0 passes for location: London (51.5072 / 0.1276)

No passes found over London.
NETSAT-1